SCP
0 0 0 0 0 0 0 0 0 0 0 0 0 0 0 0 0 0 0 0 0 0 0 0 0 0 0 0 0 0 0 0 0 0 0 0 0 0 0 0 0 0 0 0
0 0 0 0 0 0 0 0 0 0 0 -0 0 0 0 0 0 0 0 0 0 0 0 0 0 0 0 0 0 0 0 0 0 0 0 0 0 0 0 0 0 0 0 0
0 0 0 0 0 0 0 0 0 0 0 0 0 0 0 0 0 0 0 0 0 0 0 0 0 0 0 0 0 0 0 0 0 0 0 0 0 0 0 0 0 0 0 0
0 0 0 0 0 0 0 0 0 0 0 0 0 0 0 0 0 0 0 0 0 0 0 0 0 0 0 0 0 0 0 0 0 0 0 0 0 0 0 0 0 0 0 0
0 0 0 0 0 0 0 0 0 0 0 0 0 0 0 0 0 0 0 0 0 0 0 0 0 0 0 0 0 0 0 0 0 0 0 0 0 0 0 0 0 0 0 0
0 0 0 0 0 0 0 0 -0 0 0 0 0 0 0 0 0 0 0 0 0 0 0 0 0 0 0 0 0 0 0 0 0 0 0 0 0 0 0 0 0 0 0 0
0 0 0 0 0 0 0 0 0 0 0 0 0 0 0 0 0 0 -0 0 0 0 0 0 0 0 0 0 0 0 0 0 0 0 0 0 0 0 0 0 0 0 0 0
0 0 0 0 0 0 0 0 0 0 0 0 0 0 0 0 0 0 0 0 0 0 0 0 0 0 0 0 0 0 0 0 0 0 0 0 0 0 0 0 0 0 0 0
0 0 0 0 0 0 -0 -0 0 0 0 0 -0 0 0 0 0 0 0 0 0 0 0 0 0 0 0 0 0 0 0 0 0 0 0 0 0 0 0 0 0 0 0 0
0 0 0 0 0 0 0 0 0 0 0 0 0 0 0 0 0 0 0 0 0 0 0 0 0 0 0 0 0 0 0 0 0 0 0 0 0 0 0 0 0 0 0 0
0 0 0 0 0 0 0 0 0 0 0 0 0 0 0 0 0 0 0 0 0 0 0 0 0 0 0 0 0 0 0 0 0 0 0 0 0 0 0 0 0 0 0 0
-0 0 0 0 0 0 0 0 0 0 0 0 0 0 0 0 0 0 0 0 0 0 0 0 0 0 0 0 0 0 0 0 0 0 0 0 0 0 0 0 0 0 0 0
0 0 0 -0 -0 0 0 0 0 0 0 0 0 0 0 0 0 0 0 0 0 0 0 0 0 0 0 0 0 0 0 0 0 0 0 0 0 0 0 0 0 0 0 0
0 0 0 0 0 0 0 0 0 0 0 0 0 0 0 0 0 0 0 0 0 0 0 0 0 0 0 0 0 0 0 0 0 0 0 0 0 0 0 0 0 0 0 0
-0 0 0 0 0 0 0 0 0 0 0 0 0 0 0 0 0 0 0 0 0 0 0 0 0 0 0 0 0 0 0 0 0 0 0 0 0 0 0 0 0 0 0 0
-0 -0 -0 -0 -0 0 0 0 0 0 0 0 0 0 0 0 0 0 0 0 0 0 0 0 0 0 0 0 0 0 0 0 0 0 0 0 0 0 0 0 0 0 0 0
-0 -0 -0 0 0 0 0 0 0 0 0 0 0 0 0 0 0 0 0 0 0 0 0 0 0 0 0 0 0 0 0 0 0 0 0 0 0 0 0 0 0 0 0 0
-0 0 0 0 0 0 0 0 0 0 0 0 0 0 0 0 0 0 0 0 0 0 0 0 0 0 0 0 0 0 0 0 0 0 0 0 0 0 0 0 0 0 0 0
0 0 0 0 0 0 0 0 0 0 0 0 0 0 0 0 0 0 0 0 0 0 0 0 0 0 0 0 0 0 0 0 0 0 0 0 0 0 0 0 0 0 0 0
0 0 0 -0 -0 0 0 0 0 0 0 0 0 0 0 0 0 -0 -0 -0 0 0 -0 -0 -0 -0 -0 0 0 0 0 0 0 0 0 0 0 0 0 0 0 0 0 0
0 0 -0 -0 -0 0 0 0 0 0 0 0 -0 -0 -0 0 0 0 0 0 0 0 0 -0 0 0 0 0 0 0 0 0 0 0 0 0 0 0 0 0 0 0 0 0
0 0 0 0 0 0 0 0 0 0 -0 -0 -0 -0 -0 -0 0 0 0 0 0 0 0 0 0 0 0 0 0 0 0 0 0 0 0 0 0 0 0 0 0 0 0 0
0 0 0 0 0 0 0 0 0 0 0 0 0 0 0 0 0 0 0 0 0 0 0 0 0 0 0 0 0 0 0 0 0 0 0 0 0 0 0 0 0 0 0 0
0 0 0 0 0 0 0 0 0 0 0 0 0 0 0 0 0 0 0 0 0 0 0 0 0 0 0 0 0 0 0 0 0 0 0 0 0 0 0 0 0 0 0 0
0 0 0 0 0 0 0 0 0 0 0 0 0 0 0 0 0 0 0 0 0 0 0 0 0 0 0 0 0 0 0 0 0 0 0 0 0 0 0 0 0 0 0 0
0 0 0 0 0 0 0 0 0 0 0 0 0 0 0 0 0 0 0 0 0 0 0 0 0 0 0 0 0 0 0 0 0 0 0 0 0 0 0 0 0 0 0 0
0 0 0 0 0 0 0 0 0 0 0 0 0 0 0 0 0 0 0 0 0 0 0 0 0 0 0 0 0 0 0 0 0 0 0 0 0 0 0 0 0 0 0 0
Wind_Speed_500mb
34 40 30 32 35 39 39 38 36 44 47 47 48 46 50 44 45 44 42 45 39 39 42 46 56 65 67 74 69 72 64 58 53 55 51 44 39 36 33 28 23 19 17 14
20 24 24 33 42 45 44 46 46 49 51 55 54 41 39 45 47 40 35 37 39 38 40 46 55 64 65 67 73 70 67 62 62 57 50 47 42 37 32 29 26 22 19 16
35 25 14 22 44 43 45 41 36 33 45 37 35 34 39 42 49 49 38 32 32 35 41 46 52 62 65 72 77 72 67 67 64 58 52 44 39 34 30 29 26 25 22 20
26 32 39 37 44 36 33 36 41 37 44 38 41 41 36 33 34 35 35 38 38 37 40 47 53 62 66 75 77 74 69 67 63 55 45 42 40 34 33 33 30 25 25 23
22 26 34 45 48 29 28 43 38 36 35 34 24 20 23 5 19 25 31 33 38 31 31 38 60 73 79 71 67 68 70 64 55 51 52 47 40 37 35 31 29 25 24 21
26 31 34 43 38 32 19 35 36 25 13 6 7 12 11 14 32 35 33 31 27 32 42 44 49 55 69 76 71 76 67 58 58 53 49 42 37 37 35 31 27 26 24 22
32 24 24 40 38 17 24 18 10 21 12 6 10 15 22 34 33 32 29 25 27 34 38 39 39 50 61 71 77 77 63 67 60 53 46 40 35 36 37 36 33 30 26 25
23 29 44 17 17 30 22 15 18 19 8 9 14 16 17 20 26 27 24 23 21 14 22 30 36 44 51 67 74 65 66 67 60 52 47 42 41 43 39 34 32 32 31 27
21 17 2 5 21 25 38 51 23 14 10 12 14 18 19 19 19 22 19 17 15 9 11 21 32 38 47 59 61 65 68 64 59 51 46 45 46 43 39 37 33 32 30 27
26 29 35 52 60 50 39 42 22 15 15 12 17 19 20 20 17 16 16 13 11 5 2 13 23 29 38 45 54 65 66 62 58 54 47 46 43 38 36 35 32 29 29 28
33 37 48 55 53 41 46 36 21 17 14 13 11 13 13 15 16 16 16 10 4 4 8 14 23 28 31 37 50 63 66 65 57 48 46 44 37 34 31 29 27 31 31 29
31 47 36 46 41 35 37 28 24 18 11 8 8 15 16 16 16 14 13 12 10 8 12 15 20 25 31 38 52 62 67 61 56 50 45 41 39 39 37 30 29 34 34 31
60 62 58 47 50 37 29 25 19 9 5 4 15 17 19 15 14 13 12 11 12 13 13 14 19 25 30 40 52 63 60 55 50 45 43 42 39 37 41 33 26 26 30 29
57 44 39 45 34 36 23 14 13 9 13 16 15 14 10 9 10 8 11 13 14 14 16 17 18 24 31 40 49 53 50 45 45 42 40 39 37 35 34 33 33 32 30 26
61 48 45 25 22 18 17 19 15 11 15 14 10 8 6 3 6 11 14 14 14 14 15 16 19 25 31 38 46 48 42 40 39 38 39 39 37 34 31 31 30 29 28 26
38 35 38 39 30 23 19 15 17 13 12 12 13 11 4 4 8 13 14 13 13 14 15 16 18 23 31 37 41 41 38 36 37 38 42 39 35 35 34 32 31 30 31 32
29 28 33 34 30 21 17 14 15 14 15 15 17 10 4 5 8 12 14 14 13 10 10 12 16 20 27 33 38 38 36 34 36 41 36 33 33 33 31 31 31 30 29 36
33 18 14 15 18 17 17 17 18 20 17 21 18 9 5 9 12 14 14 13 13 15 15 16 17 21 26 31 34 32 32 37 41 38 36 34 31 29 30 29 28 28 29 37
40 29 15 22 18 20 21 22 23 24 22 23 15 9 7 13 14 15 14 15 15 15 18 19 20 22 27 29 29 28 31 35 37 37 36 33 30 29 29 27 26 28 29 29
20 25 24 25 25 26 26 25 25 25 28 21 14 12 13 15 16 17 17 19 21 17 20 22 23 23 25 26 26 26 26 29 34 33 32 30 28 28 26 27 26 27 29 29
20 24 23 24 27 26 23 21 20 28 29 21 18 19 20 20 20 18 16 13 17 19 22 24 25 24 23 26 26 26 29 30 30 28 26 27 26 25 25 26 28 28 29 30
16 20 27 29 28 27 25 23 25 28 27 23 24 24 21 21 20 18 18 15 17 19 24 29 29 27 24 25 28 31 29 28 27 26 25 25 25 25 26 28 30 32 31 31
10 21 23 23 25 26 28 28 28 24 23 23 25 25 22 20 20 16 14 15 14 17 22 27 30 30 25 27 29 33 31 31 29 26 24 23 23 24 25 26 27 29 31 32
18 22 23 24 25 27 28 27 27 26 24 26 26 24 21 21 21 18 15 14 12 15 20 24 29 30 28 27 27 31 33 31 30 28 25 26 27 28 28 28 31 32 31 30
20 24 25 28 23 19 21 27 29 27 26 27 28 25 24 21 18 19 17 14 13 14 18 24 27 29 28 27 27 29 31 30 26 26 25 25 24 24 27 28 29 29 29 28
24 22 21 19 19 24 28 29 29 30 28 29 28 26 23 21 18 20 18 16 15 15 18 22 27 29 28 27 28 28 27 26 25 24 25 24 24 25 25 26 27 26 26 26
21 24 26 23 24 25 27 25 27 27 28 25 24 25 24 22 21 20 19 18 18 18 19 23 26 27 28 29 30 28 26 25 24 23 23 22 22 22 23 23 24 24 23 22
Wind_Direction_500mb
251 265 268 266 267 263 258 252 260 275 277 280 281 296 307 307 308 310 309 297 276 250 234 219 209 203 200 203 196 195 193 193 191 189 185 188 182 183 181 172 165 170 166 165
266 264 259 263 259 254 256 261 266 267 270 270 288 290 297 297 303 298 297 294 282 264 246 227 212 208 200 195 196 191 190 192 194 190 187 184 183 182 175 172 163 159 158 142
269 272 279 258 251 252 254 250 246 255 263 279 280 289 293 299 302 304 292 282 287 275 253 235 222 209 202 194 196 189 190 191 189 186 184 181 183 178 172 166 162 158 149 145
273 283 265 266 268 271 267 252 257 262 265 271 284 285 287 296 314 310 299 281 289 285 278 244 224 210 197 191 195 194 193 194 190 182 184 187 189 180 176 173 173 167 156 148
237 255 268 273 265 250 250 258 265 259 264 272 282 291 275 355 342 317 300 287 285 275 291 263 237 220 211 204 200 199 200 195 191 195 190 188 183 184 182 176 173 163 162 161
231 245 256 256 281 271 250 259 257 233 225 232 291 281 324 345 329 322 313 296 290 274 275 254 239 237 218 208 204 205 201 198 200 194 191 185 187 184 176 177 173 167 162 158
232 246 258 266 272 184 214 260 173 189 189 267 286 305 314 303 311 320 325 321 292 275 260 262 250 238 221 218 210 206 196 200 193 191 189 182 184 183 180 176 167 159 155 153
235 253 251 274 324 231 289 281 214 200 222 267 283 290 286 307 315 325 330 335 335 324 271 250 237 230 225 216 212 203 201 192 192 189 186 181 187 184 177 173 167 159 151 145
241 246 277 279 239 230 257 275 230 238 262 271 289 297 307 311 318 325 337 343 353 352 273 245 226 223 217 212 210 199 195 188 188 186 186 184 185 181 175 174 165 159 153 153
276 266 273 277 272 256 252 244 248 261 268 277 292 302 307 309 315 324 339 339 345 358 275 236 219 216 219 214 206 198 186 187 186 181 182 179 178 177 175 169 164 159 160 160
272 287 294 271 260 266 245 238 244 237 250 268 292 298 312 306 305 310 317 321 312 243 197 209 217 215 209 202 197 189 184 181 180 183 178 172 171 172 176 172 172 167 170 170
264 269 274 285 285 292 237 223 228 217 234 270 299 310 306 296 290 291 299 298 285 230 206 204 213 206 193 189 189 185 180 178 183 179 169 168 168 167 172 178 179 174 178 171
255 263 268 262 273 269 227 206 200 198 241 260 306 297 292 274 274 282 288 276 258 237 207 197 202 202 193 186 185 184 182 178 179 169 169 169 170 170 172 169 171 179 183 186
278 267 254 257 252 226 214 196 211 242 281 279 260 262 244 256 267 260 269 264 257 230 213 203 193 200 193 188 185 185 186 188 181 175 172 172 172 170 175 174 171 171 178 178
262 240 233 270 262 234 215 225 222 238 258 251 234 183 183 215 252 251 243 246 241 217 208 203 189 193 192 191 190 191 191 188 187 187 181 174 172 170 168 167 166 167 164 164
240 244 244 245 246 240 226 234 247 246 227 191 172 170 176 257 246 220 222 227 232 221 210 200 191 191 190 194 193 194 196 200 194 181 178 176 172 170 171 171 172 174 170 173
221 222 224 229 234 235 233 230 221 210 192 192 199 195 157 175 190 199 204 200 204 212 203 192 192 188 191 194 195 194 196 194 189 183 177 174 174 174 176 178 176 175 178 190
211 237 211 226 224 215 210 205 195 187 190 190 186 180 195 190 188 193 190 186 181 175 174 176 182 188 190 192 195 198 193 187 186 183 177 176 176 179 182 180 178 180 184 209
219 216 212 211 211 200 194 194 193 186 183 188 187 189 214 192 182 179 175 175 178 180 178 170 168 174 182 187 191 191 192 189 188 186 186 186 185 186 188 188 189 189 193 204
188 201 197 207 195 192 193 184 179 175 181 189 200 215 199 177 168 167 166 168 169 176 164 157 157 165 174 178 186 189 193 189 181 183 187 188 193 193 192 199 199 196 205 213
162 178 189 191 180 176 178 176 176 181 179 177 205 201 183 169 156 149 145 153 162 163 166 166 167 170 173 175 172 176 174 175 177 181 188 191 196 193 197 205 208 210 214 219
159 169 170 170 170 170 168 167 172 180 179 187 185 176 166 158 156 157 160 159 168 173 178 183 186 185 183 179 182 184 187 186 185 190 196 200 205 206 212 216 217 219 222 226
162 164 162 166 171 169 163 165 173 181 180 173 172 166 163 159 154 150 155 162 169 180 187 190 193 191 190 196 200 200 202 198 200 202 204 210 213 210 209 213 218 224 226 230
173 166 167 162 161 161 167 172 176 173 174 170 170 173 173 172 171 172 169 176 183 185 190 189 184 185 191 196 200 202 204 202 204 203 213 217 214 214 218 221 230 231 231 233
174 169 169 166 163 166 186 184 178 170 174 179 176 177 177 176 181 184 182 184 182 183 186 185 188 191 194 197 198 199 198 201 208 206 206 209 214 222 230 231 230 231 233 234
178 189 192 191 197 203 193 188 188 182 182 180 182 183 184 185 189 189 190 186 185 183 185 186 187 188 194 198 198 195 195 198 197 201 209 217 221 225 227 227 229 232 235 237
198 202 199 198 202 199 198 193 191 186 181 184 187 184 184 185 187 191 192 189 188 187 184 185 185 187 190 188 187 188 192 197 204 209 214 219 223 227 228 230 234 237 239 241
Wind_Speed_850mb
34 40 30 32 35 39 39 38 36 44 47 47 48 46 50 44 45 44 42 45 39 39 42 46 56 65 67 74 69 72 64 58 53 55 51 44 39 36 33 28 23 19 17 14
20 24 24 33 42 45 44 46 46 49 51 55 54 41 39 45 47 40 35 37 39 38 40 46 55 64 65 67 73 70 67 62 62 57 50 47 42 37 32 29 26 22 19 16
35 25 14 22 44 43 45 41 36 33 45 37 35 34 39 42 49 49 38 32 32 35 41 46 52 62 65 72 77 72 67 67 64 58 52 44 39 34 30 29 26 25 22 20
26 32 39 37 44 36 33 36 41 37 44 38 41 41 36 33 34 35 35 38 38 37 40 47 53 62 66 75 77 74 69 67 63 55 45 42 40 34 33 33 30 25 25 23
22 26 34 45 48 29 28 43 38 36 35 34 24 20 23 5 19 25 31 33 38 31 31 38 60 73 79 71 67 68 70 64 55 51 52 47 40 37 35 31 29 25 24 21
26 31 34 43 38 32 19 35 36 25 13 6 7 12 11 14 32 35 33 31 27 32 42 44 49 55 69 76 71 76 67 58 58 53 49 42 37 37 35 31 27 26 24 22
32 24 24 40 38 17 24 18 10 21 12 6 10 15 22 34 33 32 29 25 27 34 38 39 39 50 61 71 77 77 63 67 60 53 46 40 35 36 37 36 33 30 26 25
23 29 44 17 17 30 22 15 18 19 8 9 14 16 17 20 26 27 24 23 21 14 22 30 36 44 51 67 74 65 66 67 60 52 47 42 41 43 39 34 32 32 31 27
21 17 2 5 21 25 38 51 23 14 10 12 14 18 19 19 19 22 19 17 15 9 11 21 32 38 47 59 61 65 68 64 59 51 46 45 46 43 39 37 33 32 30 27
26 29 35 52 60 50 39 42 22 15 15 12 17 19 20 20 17 16 16 13 11 5 2 13 23 29 38 45 54 65 66 62 58 54 47 46 43 38 36 35 32 29 29 28
33 37 48 55 53 41 46 36 21 17 14 13 11 13 13 15 16 16 16 10 4 4 8 14 23 28 31 37 50 63 66 65 57 48 46 44 37 34 31 29 27 31 31 29
31 47 36 46 41 35 37 28 24 18 11 8 8 15 16 16 16 14 13 12 10 8 12 15 20 25 31 38 52 62 67 61 56 50 45 41 39 39 37 30 29 34 34 31
60 62 58 47 50 37 29 25 19 9 5 4 15 17 19 15 14 13 12 11 12 13 13 14 19 25 30 40 52 63 60 55 50 45 43 42 39 37 41 33 26 26 30 29
57 44 39 45 34 36 23 14 13 9 13 16 15 14 10 9 10 8 11 13 14 14 16 17 18 24 31 40 49 53 50 45 45 42 40 39 37 35 34 33 33 32 30 26
61 48 45 25 22 18 17 19 15 11 15 14 10 8 6 3 6 11 14 14 14 14 15 16 19 25 31 38 46 48 42 40 39 38 39 39 37 34 31 31 30 29 28 26
38 35 38 39 30 23 19 15 17 13 12 12 13 11 4 4 8 13 14 13 13 14 15 16 18 23 31 37 41 41 38 36 37 38 42 39 35 35 34 32 31 30 31 32
29 28 33 34 30 21 17 14 15 14 15 15 17 10 4 5 8 12 14 14 13 10 10 12 16 20 27 33 38 38 36 34 36 41 36 33 33 33 31 31 31 30 29 36
33 18 14 15 18 17 17 17 18 20 17 21 18 9 5 9 12 14 14 13 13 15 15 16 17 21 26 31 34 32 32 37 41 38 36 34 31 29 30 29 28 28 29 37
40 29 15 22 18 20 21 22 23 24 22 23 15 9 7 13 14 15 14 15 15 15 18 19 20 22 27 29 29 28 31 35 37 37 36 33 30 29 29 27 26 28 29 29
20 25 24 25 25 26 26 25 25 25 28 21 14 12 13 15 16 17 17 19 21 17 20 22 23 23 25 26 26 26 26 29 34 33 32 30 28 28 26 27 26 27 29 29
20 24 23 24 27 26 23 21 20 28 29 21 18 19 20 20 20 18 16 13 17 19 22 24 25 24 23 26 26 26 29 30 30 28 26 27 26 25 25 26 28 28 29 30
16 20 27 29 28 27 25 23 25 28 27 23 24 24 21 21 20 18 18 15 17 19 24 29 29 27 24 25 28 31 29 28 27 26 25 25 25 25 26 28 30 32 31 31
10 21 23 23 25 26 28 28 28 24 23 23 25 25 22 20 20 16 14 15 14 17 22 27 30 30 25 27 29 33 31 31 29 26 24 23 23 24 25 26 27 29 31 32
18 22 23 24 25 27 28 27 27 26 24 26 26 24 21 21 21 18 15 14 12 15 20 24 29 30 28 27 27 31 33 31 30 28 25 26 27 28 28 28 31 32 31 30
20 24 25 28 23 19 21 27 29 27 26 27 28 25 24 21 18 19 17 14 13 14 18 24 27 29 28 27 27 29 31 30 26 26 25 25 24 24 27 28 29 29 29 28
24 22 21 19 19 24 28 29 29 30 28 29 28 26 23 21 18 20 18 16 15 15 18 22 27 29 28 27 28 28 27 26 25 24 25 24 24 25 25 26 27 26 26 26
21 24 26 23 24 25 27 25 27 27 28 25 24 25 24 22 21 20 19 18 18 18 19 23 26 27 28 29 30 28 26 25 24 23 23 22 22 22 23 23 24 24 23 22
Wind_Direction_850mb
251 265 268 266 267 263 258 252 260 275 277 280 281 296 307 307 308 310 309 297 276 250 234 219 209 203 200 203 196 195 193 193 191 189 185 188 182 183 181 172 165 170 166 165
266 264 259 263 259 254 256 261 266 267 270 270 288 290 297 297 303 298 297 294 282 264 246 227 212 208 200 195 196 191 190 192 194 190 187 184 183 182 175 172 163 159 158 142
269 272 279 258 251 252 254 250 246 255 263 279 280 289 293 299 302 304 292 282 287 275 253 235 222 209 202 194 196 189 190 191 189 186 184 181 183 178 172 166 162 158 149 145
273 283 265 266 268 271 267 252 257 262 265 271 284 285 287 296 314 310 299 281 289 285 278 244 224 210 197 191 195 194 193 194 190 182 184 187 189 180 176 173 173 167 156 148
237 255 268 273 265 250 250 258 265 259 264 272 282 291 275 355 342 317 300 287 285 275 291 263 237 220 211 204 200 199 200 195 191 195 190 188 183 184 182 176 173 163 162 161
231 245 256 256 281 271 250 259 257 233 225 232 291 281 324 345 329 322 313 296 290 274 275 254 239 237 218 208 204 205 201 198 200 194 191 185 187 184 176 177 173 167 162 158
232 246 258 266 272 184 214 260 173 189 189 267 286 305 314 303 311 320 325 321 292 275 260 262 250 238 221 218 210 206 196 200 193 191 189 182 184 183 180 176 167 159 155 153
235 253 251 274 324 231 289 281 214 200 222 267 283 290 286 307 315 325 330 335 335 324 271 250 237 230 225 216 212 203 201 192 192 189 186 181 187 184 177 173 167 159 151 145
241 246 277 279 239 230 257 275 230 238 262 271 289 297 307 311 318 325 337 343 353 352 273 245 226 223 217 212 210 199 195 188 188 186 186 184 185 181 175 174 165 159 153 153
276 266 273 277 272 256 252 244 248 261 268 277 292 302 307 309 315 324 339 339 345 358 275 236 219 216 219 214 206 198 186 187 186 181 182 179 178 177 175 169 164 159 160 160
272 287 294 271 260 266 245 238 244 237 250 268 292 298 312 306 305 310 317 321 312 243 197 209 217 215 209 202 197 189 184 181 180 183 178 172 171 172 176 172 172 167 170 170
264 269 274 285 285 292 237 223 228 217 234 270 299 310 306 296 290 291 299 298 285 230 206 204 213 206 193 189 189 185 180 178 183 179 169 168 168 167 172 178 179 174 178 171
255 263 268 262 273 269 227 206 200 198 241 260 306 297 292 274 274 282 288 276 258 237 207 197 202 202 193 186 185 184 182 178 179 169 169 169 170 170 172 169 171 179 183 186
278 267 254 257 252 226 214 196 211 242 281 279 260 262 244 256 267 260 269 264 257 230 213 203 193 200 193 188 185 185 186 188 181 175 172 172 172 170 175 174 171 171 178 178
262 240 233 270 262 234 215 225 222 238 258 251 234 183 183 215 252 251 243 246 241 217 208 203 189 193 192 191 190 191 191 188 187 187 181 174 172 170 168 167 166 167 164 164
240 244 244 245 246 240 226 234 247 246 227 191 172 170 176 257 246 220 222 227 232 221 210 200 191 191 190 194 193 194 196 200 194 181 178 176 172 170 171 171 172 174 170 173
221 222 224 229 234 235 233 230 221 210 192 192 199 195 157 175 190 199 204 200 204 212 203 192 192 188 191 194 195 194 196 194 189 183 177 174 174 174 176 178 176 175 178 190
211 237 211 226 224 215 210 205 195 187 190 190 186 180 195 190 188 193 190 186 181 175 174 176 182 188 190 192 195 198 193 187 186 183 177 176 176 179 182 180 178 180 184 209
219 216 212 211 211 200 194 194 193 186 183 188 187 189 214 192 182 179 175 175 178 180 178 170 168 174 182 187 191 191 192 189 188 186 186 186 185 186 188 188 189 189 193 204
188 201 197 207 195 192 193 184 179 175 181 189 200 215 199 177 168 167 166 168 169 176 164 157 157 165 174 178 186 189 193 189 181 183 187 188 193 193 192 199 199 196 205 213
162 178 189 191 180 176 178 176 176 181 179 177 205 201 183 169 156 149 145 153 162 163 166 166 167 170 173 175 172 176 174 175 177 181 188 191 196 193 197 205 208 210 214 219
159 169 170 170 170 170 168 167 172 180 179 187 185 176 166 158 156 157 160 159 168 173 178 183 186 185 183 179 182 184 187 186 185 190 196 200 205 206 212 216 217 219 222 226
162 164 162 166 171 169 163 165 173 181 180 173 172 166 163 159 154 150 155 162 169 180 187 190 193 191 190 196 200 200 202 198 200 202 204 210 213 210 209 213 218 224 226 230
173 166 167 162 161 161 167 172 176 173 174 170 170 173 173 172 171 172 169 176 183 185 190 189 184 185 191 196 200 202 204 202 204 203 213 217 214 214 218 221 230 231 231 233
174 169 169 166 163 166 186 184 178 170 174 179 176 177 177 176 181 184 182 184 182 183 186 185 188 191 194 197 198 199 198 201 208 206 206 209 214 222 230 231 230 231 233 234
178 189 192 191 197 203 193 188 188 182 182 180 182 183 184 185 189 189 190 186 185 183 185 186 187 188 194 198 198 195 195 198 197 201 209 217 221 225 227 227 229 232 235 237
198 202 199 198 202 199 198 193 191 186 181 184 187 184 184 185 187 191 192 189 188 187 184 185 185 187 190 188 187 188 192 197 204 209 214 219 223 227 228 230 234 237 239 241